Torna al catalogo

STARLINK-37770

AttivoComunicazioniSSO
NORAD 69225·PAYLOAD·🇺🇸 United States

Lanciato May 26, 2026 da Vandenberg Space Force Base

Loading…

Prossimi Passaggi (prossime 24 ore)

TLE

AggiornatoSource: CelesTrak SupGP

Epoca: Sep 14, 2026, 14:31 UTC

1 69225C 26115Q   26257.60534722 -.00033854  00000+0 -10508-2 0  2577
2 69225  97.2833 273.8045 0001752  99.9336  66.8523 15.33460675    12

Traccia STARLINK-37770 in tempo reale con AllMySat

Download on the App Store